Home   Weather   Kangerlussuaq   Past weeks
Flag for Greenland

Past Weather in Kangerlussuaq, Greenland — Yesterday and Last 2 Weeks

Now
34 °F

Passing clouds.


Feels Like: 26 °F
Forecast: 44 / 23 °F
Wind: 9 mph from Northeast

Location: Sdr Stroemfjord

Current Time: Oct 18, 2019 at 5:36:43 am

Latest Report: Oct 18, 2019 at 4:50 am


Visibility: N/A

Pressure: 29.89 "Hg

Humidity: 70%

Dew Point: 25 °F

Location of KangerlussuaqLocation

Past Weather in Kangerlussuaq — Graph

°F

Kangerlussuaq Temperature Yesterday

Maximum temperature yesterday: 23 °F (at 1:50 pm)
Minimum temperature yesterday: 10 °F (at 4:50 am)
Average temperature yesterday: 16 °F

High & Low Weather Summary for the Past Weeks

 TemperatureHumidityPressure
High54 °F (Oct 3, 11:50 am)100% (Oct 6, 2:50 am)30.24 "Hg (Oct 6, 2:50 am)
Low9 °F (Oct 15, 6:50 am)24% (Oct 3, 2:50 pm)29.06 "Hg (Oct 5, 2:50 pm)
Average27 °F71%29.77 "Hg
* Reported Oct 3 3:50 am — Oct 18 3:50 am, Kangerlussuaq. Weather by CustomWeather, © 2019

Note: Actual official high and low records may vary slightly from our data, if they occured in-between our weather recording intervals... More about our weather records

Advertising

Kangerlussuaq Weather History for the Previous 24 Hours

Scroll right to see more
 ConditionsComfort  
Time TempWeatherWind HumidityBarometerVisibility
3:50 am
Fri, Oct 18
34 °FPartly cloudy.8 mph75%29.92 "HgN/A
2:50 am28 °FPassing clouds.12 mph74%29.92 "HgN/A
1:50 am28 °FPartly cloudy.13 mph74%29.92 "HgN/A
12:50 am23 °FPassing clouds.8 mph80%29.95 "HgN/A
11:50 pm
Thu, Oct 17
23 °FPassing clouds.5 mph74%29.95 "HgN/A
10:50 pm19 °FPassing clouds.10 mph79%29.95 "HgN/A
9:50 pm19 °FPassing clouds.8 mph73%29.95 "HgN/A
8:50 pm18 °FPassing clouds.9 mph79%29.95 "HgN/A
7:50 pm18 °FPassing clouds.8 mph73%29.95 "HgN/A
6:50 pm18 °FPassing clouds.8 mph79%29.95 "HgN/A
5:50 pm18 °FPassing clouds.8 mph73%29.95 "HgN/A
4:50 pm19 °FCold.9 mph73%29.95 "HgN/A
3:50 pm19 °FCold.9 mph73%29.95 "HgN/A
2:50 pm23 °FPassing clouds.3 mph63%29.95 "HgN/A
1:50 pm23 °FCold.3 mph63%29.98 "HgN/A
12:50 pm21 °FCold.6 mph68%29.98 "HgN/A
11:50 am18 °FCold.9 mph73%29.98 "HgN/A
10:50 am14 °FCold.9 mph79%29.98 "HgN/A
9:50 am12 °FCold.10 mph85%29.98 "HgN/A
8:50 am10 °FPartly sunny.10 mph85%30.01 "HgN/A
7:50 am10 °FPassing clouds.8 mph79%29.98 "HgN/A
6:50 am10 °FCold.8 mph85%29.98 "HgN/A
5:50 am10 °FPassing clouds.9 mph85%29.98 "HgN/A
Weather by CustomWeather, © 2019

See weather overview